User: anonymous   Login
Location: Unspecified
(0.0000°N, 0.0000°E)
Time: 11:11:50
(UTC+00:00)
Language:

Secor 13 - Orbit

View from above orbital plane
View from above orbital plane
View from above satellite
View from above satellite

Ground track
Ground track

The orbit data is extracted from the following two-line orbital elements,

1  3891U 69037B   18018.67847593 -.00000028 +00000-0 +28717-4 0  9993
2  3891 099.9305 289.8303 0039371 188.1490 204.7178 13.42847557389493
Epoch (UTC): 18 January 2018 16:17:00
Eccentricity: 0.0039371
inclination: 99.9305°
perigee height: 1069 km
apogee height: 1128 km
right ascension of ascending node: 289.8303°
argument of perigee: 188.1490°
revolutions per day: 13.42847557
mean anomaly at epoch: 204.7178°
orbit number at epoch: 38949

The dashed part of the orbit path shows where the satellite is in the earth's shadow,  

DLR